Weather in Inzhich-Chukun

Russia / Karachay-Cherkess Republic     44°02′19″N   41°46′55″E
temp.,
°C
wind,
m/s
gust,
m/s
humid.,
%
clouds,
%
prec.,
mm/h
press.,
hPa
HPBL,
m
12 april, mon
mon1200:00+5nnw119294 0.0 101853
03:00+5nw1192100 0.0 101860
06:00+5n1293100 0.0 1020128
09:00+5n1195100 0.3 1021226
12:00+5nnw1192100 0.5 1021278
15:00+5nne2293100 0.6 1022321
18:00+4ne1194100 0.1 1022165
21:00+4w0095100 0.1 1023102
13 april, tue
tue1300:00+4e1196100 1.1 102395
03:00+4nne1196100 1.1 102371
06:00+4e1196100 0.1 102281
09:00+6n1190100 0.1 1022310
12:00+5ne2292100 3.8 1022653
15:00+6n1187100 4.1 1022479
18:00+6n1189100 0.0 1021248
21:00+5w119296 0.1 102145
14 april, wed
wed1400:00+5nw0093100 0.1 102013
03:00+4wnw1295100 4.9 1020626
06:00+4sw2396100 1.8 1020562
09:00+5ssw2293100 1.8 1019339
12:00+9n3374100 0.0 1017838
15:00+10n4567100 0.1 10171317
18:00+8nnw237659 0.1 1017305
21:00+6ssw118723 0.1 101812
15 april, thu
thu1500:00+4s33911 0.0 101833
03:00+2s34710 0.0 101959
06:00+1s44610 0.0 101964
09:00+10sse123991 0.0 1016336
12:00+14nne223787 0.0 10151156
15:00+15ne333994 0.0 10141445
18:00+11nne3658100 0.0 1015157
21:00+7e11675 0.0 101710
16 april, fri
fri1600:00+6s33765 0.0 101836
03:00+5s33715 0.0 101842
06:00+5s336998 0.0 101853
09:00+12ene114924 0.0 1016411
12:00+15nne335161 0.0 10151227
15:00+16n3247100 0.0 10141698
18:00+14nnw46645 0.3 1014211
21:00+7e229797 1.3 1019167